Content
SEND FEEDBACK

Daily
Averages
Monthly
Summary
Canada

NEW GLASGOW, PRINCE EDWARD ISLAND


Home > North America > Canada > Prince Edward Island
Elevation: 20 feet     Latitude: 46 24N     Longitude: 63 21W

WEATHER
 
SELECT A DAY
Number of Records: 96,484;   Date Range: 6/20/04 - 9/29/14
 
SHARE

PRINT THIS DATA

[ ← Previous Day ]
WEATHER ALMANAC - FEBRUARY 13, 2013
[ Next Day → ]
[ °C ]   °F
Weather ElementAverageHighLow
Temperature29.3 °F31.6 °F (3:00 pm)26.6 °F (7:00 am)
Dewpoint27 °F28.2 °F (1:00 pm)24.8 °F (7:00 am)
Humidity90.2 %94 % (1:00 am)85 % (2:00 pm)
Barometer29.63 in29.72 in (9:00 pm)29.45 in (1:00 am)
Wind Speed6 mph15 mph (1:00 am)
Wind Gust24.2 mph (3:00 am)
Weather ElementAverage
Wind DirectionW (273.1 °)

Weather ElementTotal
Precipitation0.09 in
Heating Degree Days35.9 (Base 65)
Averaged from 26 records on February 13, 2013
WEATHER CONDITIONS BREAKOUT
WIND DIRECTION BREAKOUT
WEATHER BY HOUR - FEBRUARY 13, 2013
[ °C ]   °F
Local TimeTemperatureDewpointHumidityBarometerVisibilityWind DirectionWind SpeedGust SpeedPrecipitationEventsConditions
1:00 AM28.6 °F27.1 °F94 %29.45 inNW (310°)15.0 mph20.7 mph
2:00 AM28.0 °F27.0 °F92 %29.48 inNW (320°)15.0 mph
3:00 AM28.2 °F26.1 °F92 %29.51 inNW (310°)12.7 mph24.2 mph
4:00 AM28.2 °F26.8 °F94 %29.55 inWNW (300°)8.1 mph
5:00 AM28.9 °F26.6 °F91 %29.55 inNW (310°)10.4 mph
6:00 AM28.6 °F26.2 °F91 %29.55 inNW (320°)9.2 mph
7:00 AM26.6 °F24.8 °F93 %29.57 inWNW (300°)5.8 mph
8:00 AM28.0 °F26.0 °F87 %29.61 inWest (280°)6.9 mph
8:00 AM27.5 °F25.7 °F93 %29.61 inWest (280°)6.9 mph
9:00 AM28.6 °F26.6 °F92 %29.63 inWNW (300°)4.6 mph
10:00 AM29.5 °F26.8 °F90 %29.65 inWest (270°)5.8 mph0.02 in
11:00 AM30.2 °F27.1 °F88 %29.65 inWest (280°)5.8 mph0.07 in
12:00 PM30.4 °F27.1 °F88 %29.65 inWest (260°)5.8 mph
1:00 PM31.3 °F28.2 °F88 %29.64 inWest (270°)4.6 mph
2:00 PM31.0 °F28.0 °F85 %29.64 inWest (270°)5.8 mph
2:00 PM31.5 °F28.2 °F88 %29.64 inWest (270°)5.8 mph
3:00 PM31.6 °F28.2 °F87 %29.65 inWest (280°)4.6 mph
4:00 PM30.6 °F27.0 °F86 %29.66 inNW (310°)6.9 mph
5:00 PM30.4 °F27.3 °F88 %29.67 inWNW (300°)2.3 mph
6:00 PM29.8 °F27.0 °F89 %29.69 inWNW (290°)1.2 mph
7:00 PM29.7 °F27.0 °F90 %29.71 inWest (280°)2.3 mph
8:00 PM29.0 °F27.0 °F87 %29.71 inSouth (170°)1.2 mph
8:00 PM28.9 °F26.6 °F91 %29.71 inSouth (170°)1.2 mph
9:00 PM29.1 °F27.3 °F93 %29.72 inSSW (210°)2.3 mph
10:00 PM29.3 °F27.5 °F93 %29.72 inSW (230°)3.5 mph
11:00 PM29.5 °F27.9 °F94 %29.71 inSSW (210°)3.5 mph
Hourly data recorded from CAHR, located miles away from New Glasgow, Prince Edward Island







STORIES FROM OUR PARTNERS